www.pogodaiklimat.ru

Погода и климат >> Архив погоды >> Казахстан >> Жангизтобе


АРХИВ ПОГОДЫ в Жангизтобе

Время (UTC), дата Ветер
(напр.,м/с)
 
Видим.   Явления Облачность Т
(С)
Тd
(С)
f
(%)
Тe
(С)
Тes
(С)
Комфортность P
(гПа)
Po
(гПа)
Тmin
(С)
Tmax
(С)
R
(мм)
R24
(мм)
S
(см)
21 11.07 СЗ 4 н/о ясно +16.4 +10.9 70 +16 +16 1009.9 957.8
00 12.07 СЗ 2 50 км ясно +14.8 +10.7 76 +15 +15 1010.4 958.0
03 12.07 СЗ 2 50 км ясно +20.4 +11.6 57 +23 +32 комфорт 1009.2 957.8
06 12.07 С 2 50 км ясно +25.4 +9.5 37 +26 +43 жарко 1007.2 956.7 +13.9
09 12.07 С 4 50 км ясно +30.0 +8.8 27 +29 +38 жарко 1005.1 955.5
12 12.07 С 4 50 км ясно +29.0 +7.6 26 +28 +30 жарко 1005.0 955.2
15 12.07 С 6 50 км ясно +25.2 +11.4 42 +27 +27 жарко 1005.8 955.4 +30.4
18 12.07 СЗ 4 н/о ясно +20.4 +12.4 60 +23 +23 комфорт 1006.4 955.2 +30.4
21 12.07 СЗ 4 н/о ясно +17.4 +11.7 69 +17 +17 1005.8 954.1
00 13.07 З 2 50 км ясно +16.2 +11.5 74 +16 +17 1006.4 954.5
03 13.07 СЗ 2 50 км ясно +21.6 +11.8 54 +24 +33 комфорт 1005.5 954.5
06 13.07 З 4 50 км ясно +26.5 +9.7 35 +27 +39 жарко 1004.0 953.9 +15.7
09 13.07 С 2 50 км ясно +30.2 +10.5 30 +30 +43 жарко 1001.4 952.0
12 13.07 СЗ 4 50 км 3/0
[Ci fib]
+30.0 +11.4 32 +31 +32 жарко 1001.0 951.6
15 13.07 С 6 50 км ясно +24.4 +12.0 46 +26 +26 жарко 1002.8 952.4 +30.7
18 13.07 С 6 н/о ясно +21.2 +12.2 56 +23 +23 комфорт 1003.5 952.6 +30.7
21 13.07 З 2 н/о ясно +17.8 +12.9 73 +18 +18 1003.0 951.5
00 14.07 СЗ 2 50 км ясно +17.2 +12.8 75 +18 +18 1003.4 951.8
03 14.07 С 6 50 км ясно +22.0 +13.6 59 +25 +29 комфорт 1002.5 951.8
06 14.07 СЗ 10 50 км ясно +28.0 +14.3 43 +30 +31 жарко 1000.6 951.0 +16.2
09 14.07 СЗ 12 50 км 3/3 1000 м
[Cu med, cong Ci fib]
+31.0 +12.4 32 +32 +32 жарко 999.2 950.1
12 14.07 СЗ 10 50 км 6/6 1000 м
[Cu med, cong]
+30.0 +13.4 36 +31 +31 жарко 999.4 950.1
15 14.07 С 12 50 км 3/0
[Ac lent]
+26.4 +15.2 50 +29 +29 жарко 1001.3 951.4 +31.9
18 14.07 С 10 н/о ясно +22.0 +12.5 55 +25 +25 комфорт 1002.9 952.1 +31.9
21 14.07 СЗ 8 н/о 3/0
[Ci fib]
+19.5 +12.7 65 +20 +20 1002.7 951.5
00 15.07 З 2 50 км ясно +17.3 +13.3 77 +18 +18 1003.6 952.0
03 15.07 СЗ 2 50 км ясно +23.2 +16.5 66 +28 +37 душно 1002.8 952.3
06 15.07 СЗ 10 50 км ясно +29.4 +12.4 35 +30 +31 жарко 1001.2 951.7 +16.8
09 15.07 З 12 50 км ясно +31.8 +11.3 28 +32 +32 жарко 1000.2 951.1
12 15.07 З 12 50 км ясно +30.0 +13.0 35 +31 +31 жарко 1000.7 951.4
15 15.07 С 5 50 км ясно +25.0 +4.8 27 +24 +24 комфорт 1003.3 952.9 +32.4
18 15.07 СЗ 6 н/о ясно +21.0 +8.3 44 +22 +22 комфорт 1003.6 952.6 +32.4
21 15.07 З 6 н/о ясно +18.2 +7.9 51 +18 +18 1003.5 952.0
00 16.07 З 4 50 км ясно +16.8 +8.8 59 +16 +17 1004.4 952.6
03 16.07 С 4 50 км ясно +22.4 +8.8 42 +24 +30 комфорт 1004.2 953.4
06 16.07 СЗ 4 50 км 3/0
[Ci fib]
+25.6 +8.1 33 +26 +37 жарко 1003.4 953.1 +16.2
09 16.07 С 4 50 км ясно +28.0 +4.4 22 +27 +35 жарко 1003.0 953.1
12 16.07 С 4 50 км ясно +27.4 +6.0 26 +27 +29 жарко 1003.6 953.6
15 16.07 С 4 50 км 4/0
[Ac lent Ci fib]
+23.0 +8.2 39 +24 +24 комфорт 1005.2 954.4 +28.5
18 16.07 С 6 н/о 8/0
[Ac und]
+20.0 +10.2 53 +21 +21 комфорт 1005.8 954.5 +28.5
21 16.07 С 6 н/о 4/0
[Ac lent]
+17.0 +8.6 58 +16 +16 1006.6 954.7
00 17.07 С 2 50 км 1/0
[Ac lent]
+15.0 +7.5 61 +15 +15 1007.4 955.1
03 17.07 ЮЗ 2 50 км ясно +24.2 +7.1 33 +24 +33 комфорт 1006.8 956.1
06 17.07 Ю 2 50 км ясно +29.0 +7.3 26 +28 +45 жарко 1005.0 955.2 +14.5
09 17.07 З 2 50 км ясно +31.8 +7.5 22 +30 +43 жарко 1004.0 954.7
12 17.07 СЗ 2 50 км ясно +33.8 +4.5 16 +31 +34 жарко 1002.5 953.5
15 17.07 С 2 50 км 8/3 1000 м
[Cb calv Ac As Ci fib]
+30.0 +7.7 25 +29 +29 жарко 1004.1 954.5 +34.7
18 17.07 Ю 4 н/о {ливн. осадки} 6/0
[Ac As Ci fib]
+25.8 +7.8 32 +26 +26 жарко 1003.2 953.0 +34.7
21 17.07 Ю 4 н/о 8/0
[Ac und Ci fib]
+22.6 +7.9 39 +24 +24 комфорт 1003.6 952.8
00 18.07 З 2 50 км 6/0
[Ci fib]
+20.5 +11.0 54 +23 +23 комфорт 1006.1 954.9
03 18.07 СЗ 6 50 км 8/0
[Ac lent Ci fib]
+23.6 0.0 21 +22 +25 комфорт 1006.3 955.5
06 18.07 С 6 50 км 8/3 1000 м
[Cu hum Ac cuf Ci fib]
+27.8 +13.2 41 +30 +33 жарко 1005.1 955.2 +19.7 0.0
09 18.07 С 6 50 км 8/4 1000 м
[Cu hum Ac cuf Ci fib]
+31.0 +10.5 28 +31 +33 жарко 1004.6 955.2
12 18.07 С 8 50 км 8/8 1000 м
[Cu hum]
+30.6 +10.3 28 +30 +30 жарко 1004.5 955.0
15 18.07 СЗ 6 50 км 4/3 1000 м
[Sc Ac lent]
+27.0 +10.4 35 +28 +28 жарко 1005.8 955.7 +31.5
18 18.07 штиль 0 н/о ясно +20.5 +11.3 56 +22 +22 комфорт 1007.5 956.2 +31.5

 

Местоположение метеостанции Жангизтобе (Восточно-Казахстанская область, Казахстан): широта 49.22 долгота 81.22 высота над уровнем моря 455 м.

В архиве по умолчанию представлена погода в Жангизтобе за последнюю неделю. Архивные данные за месяц целиком и за предыдущие месяцы, начиная с января 2011 года, Вы можете получить, выбрав интересующий диапазон дат из раскрывающегося списка и нажав кнопку "Ввод!".


*Определитесь, кто Вы:
робот инопланетянин человек

Внимание! Время в таблицах - всемирное. Для получения местного времени необходимо прибавить поправку, которая равна 6 ч.

Смотрите также архив погоды в соседних городах и на ближайших метеорологических станциях:

Погода в Кентерлау (Восточно-Казахстанская область, Казахстан) (29 км)
Погода в Шаре (Восточно-Казахстанская область, Казахстан) (42 км)
Погода в Шалабае (Восточно-Казахстанская область, Казахстан) (57 км)
Погода в Кокпекты (Восточно-Казахстанская область, Казахстан) (99 км)
Погода в Кайсеновой (Восточно-Казахстанская область, Казахстан) (117 км)
Погода в Таврии (Восточно-Казахстанская область, Казахстан) (121 км)
Погода в Первомайском (Восточно-Казахстанская область, Казахстан) (130 км)
Погода в Шульбинске (Восточно-Казахстанская область, Казахстан) (130 км)
Погода в Глубоком (Восточно-Казахстанская область, Казахстан) (130 км)
Погода в Усть-Каменогорске (Восточно-Казахстанская область, Казахстан) (131 км)

Пояснения к столбцам:

Ветер - указаны скорость ветра в м/с - средняя за 10 мин, порывы в срок и между сроками (в фигурных скобках) и направление, откуда дует ветер: С - северный, СВ - северо-восточный, В - восточный, ЮВ - юго-восточный, Ю - южный, ЮЗ - юго-западный, З - западный, СЗ - северо-западный.
Видимость - горизонтальная дальность видимости в метрах или километрах. При видимости от 1 до 10 км при отсутствии осадков обычно наблюдается дымка, при ухудшении видимости до 1 км и менее - туман. В сухую погоду видимость может ухудшаться дымом, пылью или мглою.
Явления - указаны атмосферные явления, наблюдавшиеся в срок или в последний час перед сроком; фигурными скобками обозначены явления, наблюдавшиеся между сроками (за 1-3 часа до срока); квадратными скобками обозначены град или гололедные отложения с указанием их диаметра в мм.
Облачность - указаны через наклонную черту общая и нижняя облачность в баллах и высота нижней границы облаков в метрах; квадратными скобками обозначены формы облаков: Ci - перистые, Cs - перисто-слоистые, Cc - перисто-кучевые, Ac - высококучевые, As - высокослоистые, Sc - слоисто-кучевые, Ns - слоисто-дождевые, Cu - кучевые, Cb - кучево-дождевые. Подробнее классификацию облаков см. в Атласе облаков (PDF).
T - Температура воздуха - температура, измеренная на высоте 2 м над землей.
Td - Температура точки росы - температура, при понижении до которой содержащийся в воздухе водяной пар достигнет насыщения.
f - Относительная влажность воздуха - влажноcть воздуха, измеренная на высоте 2 м над землей.
Te - Эффективная температура - температура, которую ощущает одетый по сезону человек в тени. Характеристика душности погоды. При расчете учитывается влияние влажности воздуха и скорости ветра на теплоощущения человека.
Tes - Эффективная температура на солнце - температура, которую ощущает человек, с поправкой на солнечный нагрев. Характеристика знойности погоды. Зависит от высоты солнца над горизонтом, облачности и скорости ветра. Ночью, в пасмурную погоду, а также при ветре 12 м/с и более поправка равна нулю.
P - Атмосферное давление - приведенное к уровню моря атмосферное давление.
Po - Атмосферное давление - измеренное на уровне метеостанции атмосферное давление.
Tmin - Минимальная температура - минимум температуры воздуха на высоте 2 м над землей.
Tmax - Максимальная температура - максимум температуры воздуха на высоте 2 м над землей.
R - Количество осадков - Количество выпавших осадков за период времени, мм. При наведении курсора мыши на число - период времени, за который выпало указанное количество осадков.
R24 - Количество осадков - Количество выпавших осадков за 24 часа, мм.
S - Снежный покров - Высота снежного покрова, см. При наведении курсора мыши на число - состояние снежного покрова и степень покрытия местности в баллах.